Total_Precipitation_Accumulation
0.13 0.33 0.67 1.11 2.20 2.47 1.94 1.10 0.71 0.55 0.54 0.64 0.62 0.60 0.81 1.14 1.58 2.34 1.84 1.14 0.79 0.78 1.01 1.35 1.53 1.55 1.50 1.33 1.47 1.68 1.77 1.91 2.09 2.33 2.66 2.73 2.97 3.08 3.17 3.51 3.84 3.99 3.95 3.81 3.67 3.46 3.15 2.84 2.40
0.28 0.63 0.93 1.39 2.37 2.57 1.95 1.00 0.67 0.50 0.53 0.63 0.71 0.67 0.63 0.75 0.69 0.90 1.26 1.25 0.84 0.86 1.03 1.23 1.34 1.40 1.38 1.27 1.42 1.66 1.77 1.90 2.05 2.23 2.47 2.58 2.73 2.93 3.23 3.49 3.50 3.54 3.53 3.48 3.28 2.94 2.64 2.31 1.92
0.48 0.74 1.07 1.54 1.67 1.65 1.40 0.86 0.60 0.54 0.54 0.68 0.72 0.57 0.62 0.88 0.77 0.92 1.08 1.03 0.86 0.85 1.00 1.23 1.23 1.27 1.30 1.31 1.54 1.74 1.82 1.94 2.02 2.19 2.40 2.51 2.60 2.77 3.14 3.37 3.23 3.22 3.13 2.90 2.67 2.52 2.28 1.96 1.74
0.55 0.80 0.97 1.12 0.86 0.67 0.62 0.58 0.55 0.59 0.63 0.61 0.67 0.71 0.73 0.86 0.82 0.90 0.94 0.86 0.77 0.79 0.90 1.19 1.19 1.09 1.17 1.44 1.63 1.65 1.75 1.88 1.98 2.16 2.33 2.46 2.48 2.63 2.89 2.88 2.81 2.78 2.68 2.51 2.44 2.26 2.04 1.76 1.54
0.49 0.85 1.02 0.77 0.50 0.49 0.53 0.54 0.59 0.68 0.69 0.75 0.86 0.97 1.13 1.04 0.84 0.95 1.05 0.97 0.85 0.87 0.90 1.05 1.13 1.03 1.13 1.28 1.43 1.49 1.57 1.79 1.96 2.19 2.35 2.41 2.43 2.52 2.52 2.43 2.42 2.46 2.34 2.18 2.09 1.98 1.80 1.64 1.52
0.64 0.84 0.74 0.51 0.40 0.44 0.51 0.54 0.56 0.62 0.70 0.89 0.96 0.95 1.25 1.23 0.95 1.00 1.04 1.25 1.09 0.80 0.76 0.87 1.09 1.07 1.11 1.23 1.39 1.52 1.53 1.69 1.89 2.00 2.16 2.17 2.06 2.05 2.08 2.19 2.29 2.22 2.03 1.88 1.76 1.64 1.58 1.54 1.49
0.62 0.69 0.50 0.36 0.32 0.37 0.36 0.44 0.57 0.61 0.76 0.89 0.79 0.84 1.29 1.46 1.17 1.07 1.06 1.11 0.99 0.75 0.75 0.83 0.92 0.91 1.07 1.38 1.60 1.68 1.67 1.75 1.79 1.80 1.99 2.02 1.95 1.90 1.90 1.97 2.05 1.92 1.75 1.62 1.56 1.42 1.29 1.18 1.24
0.36 0.38 0.30 0.26 0.23 0.29 0.25 0.28 0.44 0.62 0.73 0.68 0.69 0.98 1.46 1.41 1.00 0.97 1.03 1.09 1.03 0.93 0.90 0.94 0.96 0.88 0.90 1.19 1.60 1.86 1.91 1.87 1.83 1.94 2.06 2.10 2.09 2.00 1.95 1.70 1.73 1.76 1.63 1.59 1.57 1.48 1.25 1.16 1.23
0.22 0.25 0.23 0.18 0.15 0.21 0.22 0.25 0.35 0.52 0.59 0.66 0.82 0.94 1.08 0.92 0.77 0.95 1.15 1.36 1.45 1.26 1.18 1.14 1.00 0.94 0.97 1.09 1.36 1.66 1.94 2.14 2.21 2.26 2.23 2.30 2.33 2.23 2.28 1.96 2.07 2.00 1.84 1.81 1.84 1.70 1.44 1.29 1.28
0.20 0.20 0.21 0.11 0.10 0.16 0.17 0.26 0.42 0.62 0.77 1.00 1.31 1.35 1.10 0.95 0.89 1.00 1.29 1.47 1.76 1.56 1.27 1.23 1.12 1.09 1.07 0.99 1.19 1.49 1.60 1.90 2.17 2.29 2.30 2.53 2.69 2.73 2.31 2.60 2.73 2.55 2.46 2.32 2.31 2.35 1.99 1.57 1.52
0.11 0.11 0.08 0.06 0.06 0.09 0.14 0.22 0.33 0.53 0.93 1.41 1.50 1.31 1.09 1.18 1.20 1.21 1.55 1.68 1.65 1.51 1.54 1.54 1.41 1.39 1.36 1.43 1.29 1.47 1.72 1.97 2.04 2.05 2.29 2.68 2.62 2.57 2.44 2.62 3.02 3.06 3.02 2.90 2.89 2.87 2.38 2.20 2.38
0.07 0.05 0.03 0.05 0.06 0.08 0.10 0.13 0.25 0.50 0.97 1.12 1.08 1.02 1.04 1.25 1.31 1.42 1.77 1.86 1.92 1.82 2.07 2.20 1.93 1.94 1.83 1.64 1.52 1.52 1.67 1.92 2.13 2.40 2.52 2.65 2.92 2.96 2.78 2.79 2.94 3.05 3.15 3.55 3.40 3.24 2.93 2.80 2.62
0.06 0.04 0.03 0.04 0.07 0.10 0.09 0.14 0.31 0.65 0.85 0.73 0.63 0.87 0.98 1.31 1.65 1.88 2.13 2.02 2.33 2.51 2.78 2.97 2.55 2.47 2.35 2.36 2.26 1.97 2.08 2.22 2.44 2.69 2.88 2.91 3.18 3.35 3.31 3.14 3.02 2.80 2.85 3.20 3.45 3.31 3.31 3.17 2.95
0.07 0.05 0.04 0.05 0.07 0.09 0.14 0.25 0.43 0.71 0.65 0.59 0.75 1.16 1.38 1.38 1.68 2.09 2.26 2.39 2.78 3.01 3.19 3.34 3.23 3.27 3.12 2.90 2.94 2.89 2.53 2.64 2.69 2.81 2.91 3.06 3.31 3.74 3.84 3.63 3.45 3.04 2.89 2.95 3.26 3.32 3.57 3.48 3.25
0.09 0.10 0.13 0.12 0.13 0.13 0.19 0.50 0.63 0.72 0.61 0.64 0.87 1.21 1.56 1.50 1.67 1.99 2.21 2.72 3.45 3.84 3.79 3.84 3.82 4.12 4.04 3.65 3.32 3.02 2.83 2.81 3.04 3.11 3.19 3.26 3.51 3.91 3.89 3.65 3.25 2.92 2.87 3.09 3.12 3.12 3.40 3.25 3.12
0.12 0.21 0.33 0.28 0.20 0.19 0.28 0.82 0.90 0.76 0.88 0.95 1.12 1.29 1.57 1.62 1.67 1.92 2.41 3.22 4.11 4.67 4.61 4.41 4.01 4.43 4.49 4.22 4.02 3.62 3.34 3.41 3.43 3.16 3.30 3.23 3.39 3.34 3.43 3.15 2.80 2.83 2.99 3.14 3.34 3.24 3.33 3.34 3.41
0.23 0.29 0.35 0.35 0.26 0.23 0.34 0.97 0.98 0.72 0.98 1.23 1.13 1.28 1.50 1.67 1.83 1.97 2.54 3.41 4.28 5.11 5.34 5.32 5.24 5.02 4.80 4.61 4.47 4.28 4.11 3.83 3.47 3.32 3.42 3.12 2.80 2.62 2.83 2.84 2.80 2.71 2.86 2.94 2.74 3.15 3.42 3.45 3.47
0.26 0.28 0.32 0.37 0.30 0.28 0.42 0.76 0.82 0.83 0.99 1.15 1.13 1.15 1.26 1.54 1.98 2.10 2.42 3.17 4.12 5.04 5.64 5.85 5.95 5.67 5.22 4.74 4.38 4.31 4.08 3.84 3.57 3.34 3.34 2.92 2.69 2.46 2.76 2.77 2.74 2.71 2.85 2.95 3.06 3.35 3.49 3.19 3.14
0.20 0.23 0.32 0.36 0.30 0.33 0.51 0.68 0.78 0.88 1.11 1.24 1.25 1.19 1.24 1.56 2.02 2.20 2.50 2.99 3.80 4.59 5.32 5.49 5.86 5.46 4.84 4.29 3.88 3.78 3.63 3.33 3.20 3.08 3.04 2.96 2.71 2.64 2.90 2.80 2.91 2.73 2.76 2.73 2.81 3.09 3.22 2.86 2.92
0.16 0.21 0.31 0.32 0.24 0.29 0.52 0.83 0.97 1.02 1.01 1.08 1.12 1.16 1.25 1.62 2.09 2.43 2.95 3.35 3.39 3.95 4.69 4.78 4.52 4.37 3.96 3.62 3.48 3.32 3.30 2.96 2.79 2.67 2.81 2.62 2.47 2.59 2.63 2.79 2.65 2.58 2.73 2.72 2.76 3.01 2.97 2.66 2.84
0.18 0.22 0.26 0.26 0.26 0.36 0.59 1.07 1.36 1.21 0.93 0.82 0.86 0.96 1.08 1.41 1.92 2.34 2.76 3.21 3.20 3.59 3.70 3.37 3.25 3.36 3.32 3.18 3.11 3.01 3.04 2.85 2.63 2.50 2.59 2.43 2.25 2.33 2.41 2.37 2.42 2.54 2.29 2.50 2.73 2.86 2.92 2.84 2.74
0.14 0.13 0.14 0.15 0.25 0.49 0.64 1.33 1.69 1.41 1.06 0.85 0.88 1.04 1.09 1.20 1.39 1.66 1.99 2.41 2.63 2.74 2.67 2.65 2.65 2.74 2.95 2.96 2.77 2.62 2.40 2.35 2.33 2.27 2.37 2.41 2.18 2.08 2.11 2.11 2.30 2.41 2.35 2.61 2.33 2.46 2.74 2.95 2.75
0.10 0.09 0.12 0.18 0.27 0.51 0.71 1.13 1.60 1.51 1.38 1.17 1.02 1.05 1.00 1.02 1.08 1.21 1.30 1.51 1.80 2.07 2.15 2.16 2.50 2.63 2.65 2.65 2.63 2.70 2.45 2.33 2.33 2.47 2.71 2.66 2.31 1.97 1.82 1.95 2.17 2.31 2.38 2.46 2.39 2.50 2.50 2.55 2.58
0.09 0.11 0.21 0.38 0.55 0.94 0.90 1.02 1.48 1.33 1.17 1.16 1.00 0.85 0.80 0.81 0.85 1.03 1.07 1.10 1.23 1.39 1.55 1.70 2.06 2.31 2.37 2.32 2.32 2.40 2.45 2.49 2.34 2.33 2.44 2.39 2.25 2.04 1.85 1.89 2.13 2.22 2.31 2.36 2.39 2.37 2.30 2.39 2.47
0.10 0.16 0.48 0.92 1.24 1.40 0.95 0.91 1.16 0.96 0.96 1.07 0.85 0.58 0.55 0.64 0.68 0.86 0.85 0.89 1.01 1.05 1.17 1.42 1.69 1.87 1.95 2.01 2.09 2.17 2.39 2.38 2.19 2.03 2.13 2.17 2.06 1.96 1.94 1.90 2.21 2.36 2.34 2.29 2.38 2.37 2.32 2.45 2.52
0.11 0.13 0.32 0.58 0.78 0.96 0.98 1.31 1.24 0.81 0.77 0.69 0.51 0.41 0.39 0.55 0.62 0.68 0.62 0.64 0.79 0.87 0.99 1.19 1.36 1.47 1.59 1.79 1.99 2.00 2.15 2.02 1.93 2.10 2.01 1.90 1.72 1.80 2.05 2.16 2.18 2.20 2.23 2.22 2.50 2.33 2.34 2.43 2.46
0.09 0.09 0.13 0.22 0.33 0.65 1.07 1.42 1.21 0.78 0.71 0.57 0.42 0.36 0.41 0.45 0.59 0.60 0.56 0.56 0.59 0.66 0.78 1.03 1.34 1.38 1.39 1.51 1.73 1.82 1.81 1.83 1.96 2.19 2.12 1.94 1.88 1.78 2.00 2.15 2.24 2.19 2.19 2.34 2.59 2.53 2.55 2.65 2.54
0.08 0.09 0.11 0.20 0.35 0.60 0.98 1.35 1.45 1.18 0.85 0.59 0.51 0.49 0.58 0.58 0.67 0.72 0.61 0.62 0.63 0.63 0.76 0.90 1.09 1.31 1.47 1.44 1.44 1.44 1.69 1.77 1.91 2.02 1.93 1.92 1.92 1.96 2.06 2.06 2.09 2.06 2.05 2.21 2.59 2.59 2.60 2.80 2.76
0.10 0.11 0.12 0.15 0.24 0.42 0.82 1.06 0.95 0.94 0.75 0.60 0.62 0.72 0.60 0.57 0.64 0.72 0.57 0.57 0.60 0.68 0.76 0.90 1.04 1.30 1.45 1.33 1.34 1.46 1.64 1.74 1.81 1.98 1.96 1.93 1.96 2.06 2.07 2.07 2.08 2.00 1.90 2.03 2.26 2.35 2.55 2.70 2.76
0.11 0.12 0.14 0.17 0.21 0.23 0.44 0.72 0.60 0.67 0.68 0.77 0.80 0.75 0.67 0.67 0.70 0.76 0.71 0.81 0.83 0.93 0.95 1.00 1.08 1.25 1.35 1.34 1.42 1.52 1.63 1.68 1.74 1.84 1.95 2.01 2.00 2.10 2.14 2.15 2.11 1.93 1.92 2.03 2.13 2.25 2.46 2.60 2.67